Location: Mouss�
(47.9236°N, 1.2701°W)
Time: 02:49:53
(UTC+00:00)

Cosmos 2221 Rocket - Pass Details

Date: 03 March 2021
Orbit: 621 x 647 km, 82.5° (Epoch: 12 April)

Event Time Altitude Azimuth Distance (km) Brightness Sun altitude
Rises 20:17:45 0° 351° (N) 2,913 7.4 -24.8°
Reaches altitude 10° 20:19:59 10° 353° (N) 2,003 6.5 -25.1°
Enters shadow 20:23:13 48° 3° (N) 825 4.2 -25.6°
